Tracking 29892 objects as of 21-Nov-2024
HD Live streaming from Space Station
objects crossing your sky now

DELTA 1 DEB

Track DELTA 1 DEB now!
10-day predictions


NORAD ID: 27727
Int'l Code: 1976-077FS
Perigee: 1,494.9 km
Apogee: 2,170.9 km
Inclination: 102.7 °
Period: 123.3 minutes
Semi major axis: 8203 km
RCS: 0.0294 m2 (small)
Launch date: July 29, 1976
Source: United States (US)
Launch site: AIR FORCE WESTERN TEST RANGE (AFWTR)

Note: This is SATELLITE DEBRIS
Your satellite tracking list
Your tracking list is empty




NASA's NSSDC Master Catalog

Two Line Element Set (TLE):
1 27727U 76077FS  24317.65744126  .00000081  00000-0  17564-2 0  9998
2 27727 102.6805  87.9455 0411995 355.0349  16.5052 11.68349776 41270
Source of the keplerian elements: AFSPC